West Point Lake Weather Center

Moon Phase Calendar



West Point Lake Water Level
Online Cameras

 


      

Current Conditions in Rockwell Estates
10/4/2022 10:50:04 PM

56°F
Feels Like 56
Clear
Humidity
88%
Pressure
30.09"
Wind
0
Dew Point
53°F
UV Index
0/10 (Low)
Visibility
6 mi

Hourly Forecast

Date & Time Tue, Oct 4
10:00 PM
Tue, Oct 4
11:00 PM
Wed, Oct 5
12:00 AM
Wed, Oct 5
1:00 AM
Wed, Oct 5
2:00 AM
Wed, Oct 5
3:00 AM
Wed, Oct 5
4:00 AM
Wed, Oct 5
5:00 AM
Wed, Oct 5
6:00 AM
Wed, Oct 5
7:00 AM
Wed, Oct 5
8:00 AM
Wed, Oct 5
9:00 AM
Wed, Oct 5
10:00 AM
Wed, Oct 5
11:00 AM
Wed, Oct 5
12:00 PM
Wed, Oct 5
1:00 PM
Wed, Oct 5
2:00 PM
Wed, Oct 5
3:00 PM
Wed, Oct 5
4:00 PM
Wed, Oct 5
5:00 PM
Wed, Oct 5
6:00 PM
Wed, Oct 5
7:00 PM
Wed, Oct 5
8:00 PM
Wed, Oct 5
9:00 PM
Wed, Oct 5
10:00 PM
Wed, Oct 5
11:00 PM
Thu, Oct 6
12:00 AM
Thu, Oct 6
1:00 AM
Thu, Oct 6
2:00 AM
Thu, Oct 6
3:00 AM
Thu, Oct 6
4:00 AM
Thu, Oct 6
5:00 AM
Thu, Oct 6
6:00 AM
Thu, Oct 6
7:00 AM
Thu, Oct 6
8:00 AM
Thu, Oct 6
9:00 AM
Thu, Oct 6
10:00 AM
Thu, Oct 6
11:00 AM
Thu, Oct 6
12:00 PM
Thu, Oct 6
1:00 PM
Thu, Oct 6
2:00 PM
Thu, Oct 6
3:00 PM
Thu, Oct 6
4:00 PM
Thu, Oct 6
5:00 PM
Thu, Oct 6
6:00 PM
Thu, Oct 6
7:00 PM
Thu, Oct 6
8:00 PM
Thu, Oct 6
9:00 PM
Condition
Clouds

Clear

Clouds

Clouds

Clouds

Clear

Clear

Clear

Clear

Clear

Clear

Clear

Clear

Clear

Clear

Clear

Clear

Clear

Clear

Clear

Clear

Clouds

Clouds

Clear

Clear

Clear

Clear

Clear

Clear

Clear

Clear

Clear

Clear

Clear

Clear

Clear

Clear

Clear

Clear

Clear

Clear

Clear

Clear

Clear

Clear

Clear

Clear

Clear
Temperature 57°F56°F57°F57°F56°F56°F55°F54°F53°F52°F51°F57°F63°F69°F73°F76°F79°F80°F80°F79°F76°F67°F63°F60°F58°F57°F56°F55°F55°F54°F53°F53°F52°F52°F52°F59°F66°F72°F77°F79°F81°F82°F83°F82°F79°F70°F66°F64°F
Feels Like 57°F56°F56°F56°F55°F55°F54°F53°F51°F50°F49°F55°F61°F67°F71°F75°F77°F80°F80°F79°F75°F66°F61°F58°F56°F55°F54°F53°F52°F52°F51°F50°F50°F49°F50°F57°F65°F71°F75°F79°F80°F80°F80°F80°F79°F68°F64°F62°F
Cloudiness 13%0%11%18%23%2%1%1%0%0%0%0%1%1%2%2%2%1%2%3%9%14%13%0%2%1%1%1%1%0%0%0%0%0%0%0%0%0%0%0%0%0%0%0%0%0%0%0%
Visibility 6 mi6 mi6 mi6 mi6 mi6 mi6 mi6 mi6 mi6 mi6 mi6 mi6 mi6 mi6 mi6 mi6 mi6 mi6 mi6 mi6 mi6 mi6 mi6 mi6 mi6 mi6 mi6 mi6 mi6 mi6 mi6 mi6 mi6 mi6 mi6 mi6 mi6 mi6 mi6 mi6 mi6 mi6 mi6 mi6 mi6 mi6 mi6 mi
Precipitation 0%0%0%0%0%0%0%0%0%0%0%0%0%0%0%0%0%0%0%0%0%0%0%0%0%0%0%0%0%0%0%0%0%0%0%0%0%0%0%0%0%0%0%0%0%0%0%0%
Humidity 83%88%84%81%79%79%79%79%77%71%65%50%36%28%23%20%19%19%19%21%27%41%43%46%50%52%52%52%52%53%54%55%56%58%59%51%41%34%29%24%21%20%19%20%27%40%42%42%
Dew Point 52°F53°F52°F51°F50°F49°F48°F47°F46°F42°F40°F38°F36°F34°F33°F32°F32°F33°F34°F35°F40°F43°F40°F39°F39°F39°F38°F38°F37°F37°F37°F37°F37°F37°F38°F40°F42°F42°F41°F39°F38°F37°F37°F37°F42°F44°F41°F40°F
Pressure 30.09"30.09"30.09"30.09"30.06"30.06"30.06"30.06"30.06"30.09"30.09"30.09"30.09"30.09"30.09"30.06"30.06"30.03"30"30"30"30.03"30.03"30.06"30.09"30.09"30.09"30.09"30.09"30.09"30.09"30.09"30.09"30.09"30.12"30.12"30.12"30.12"30.12"30.09"30.06"30.03"30.03"30.03"30.03"30.06"30.09"30.09"
Wind Speed 4.9 mph4.6 mph4 mph3.3 mph3.5 mph3.9 mph3.9 mph4.1 mph4 mph4 mph4.1 mph3.9 mph4.2 mph5 mph6 mph6.6 mph6.8 mph7.2 mph7.5 mph7.8 mph6.6 mph4.6 mph4.5 mph4 mph4.2 mph3.4 mph2.9 mph3.2 mph3.3 mph3 mph3.1 mph2.8 mph3.1 mph2.5 mph2.5 mph2.6 mph2.6 mph2.9 mph3.9 mph5 mph5.7 mph6.3 mph6.6 mph6.7 mph5.5 mph4.8 mph4.4 mph3.7 mph
Wind
Direction

N

N

N

N
359°
N
352°
N
359°
N

N

N
357°
N
358°
N
357°
N
343°
NNW
330°
NNW
327°
NNW
332°
NNW
333°
NNW
335°
NNW
338°
NNW
341°
NNW
349°
N
350°
N
360°
N

N

N
14°
NNE
12°
NNE
356°
N
350°
N
351°
N
355°
N

N

N
356°
N

N
353°
N
345°
NNW
311°
NW
302°
WNW
306°
NW
313°
NW
321°
NW
327°
NNW
330°
NNW
338°
NNW
345°
NNW
350°
N
358°
N

Daily Forecast

Date High Low Precip. Humidity
Today
Oct 4

Clouds
78 °F
53 °F
0%
44%
Wednesday
Oct 5

Clear
80 °F
51 °F
0%
20%
Thursday
Oct 6

Clear
82 °F
52 °F
0%
24%
Friday
Oct 7

Clouds
85 °F
57 °F
0%
23%
Saturday
Oct 8

Clouds
76 °F
54 °F
0%
34%
Sunday
Oct 9

Clear
81 °F
47 °F
0%
36%
Monday
Oct 10

Clouds
82 °F
58 °F
0%
44%
Tuesday
Oct 11

Clear
84 °F
58 °F
0%
39%
Wednesday
Oct 12

Rain
86 °F
63 °F
32%
43%
Thursday
Oct 13

Rain
78 °F
55 °F
29%
20%
Friday
Oct 14

Clear
72 °F
45 °F
0%
20%
Saturday
Oct 15

Clear
63 °F
46 °F
0%
19%
Sunday
Oct 16

Clear
71 °F
37 °F
0%
21%
Monday
Oct 17

Clear
78 °F
45 °F
0%
19%
Tuesday
Oct 18

Clear
78 °F
47 °F
0%
23%
Wednesday
Oct 19

Clear
82 °F
50 °F
0%
20%

Temperature 8-14 Day Outlook



Precipitation 8-14 Day Outlook




Quick Links
West Point Lake News
West Point Lake Photos
West Point Lake Videos




About Us
Contact Us
Site Map
Search Site
Advertise With Us
   
www.WestPointLake.info
THE WEST POINT LAKE WEBSITE

Copyright 2022, Lakes Online
Privacy    |    Legal